Location: *
(2.5500°S, 65.9667°W)
Time: 12:58:49
(UTC+00:00)

Cosmos 2084 - Pass Details

Date: 26 May 2022
Orbit: 506 x 671 km, 62.8° (Epoch: 30 June)

Event Time Altitude Azimuth Distance (km) Brightness Sun altitude
Exits shadow 09:37:14 - 208° (SSW) 1,971 5.7 -11.1°
Reaches altitude 10° 09:37:36 10° 208° (SSW) 1,824 5.5 -11.0°
Maximum altitude 09:41:41 76° 294° (WNW) 551 3.2 -10.1°
Drops below altitude 10° 09:45:33 10° 19° (NNE) 1,739 6.5 -9.2°
Sets 09:47:41 0° 21° (NNE) 2,608 7.5 -8.7°
